[[{"header":{"parameterUnit":"m.s-1","parameterCategory":1,"la1":30.2991,"la2":30.254,"lo1":-89.0895,"lo2":-89.0444,"dy":0.0017,"dx":0.0017,"nx":28,"ny":28,"refTime":"2023-09-17T09:00:00:Z","depth":0,"parameterNumber":2,"parameterNumberName":"U-component_of_WINDS"},"data":[0,0,0,0,0,0,0,0,0,0,0,0,0,0,0,0,0,0,0,0,0,0,0,0,0,0,0,0,0,0,0,0,0,0,0,0,0,0,0,0,0,0,0,0,0,0,0,0,0,0,0,0,0,0,0,0,0,0,0.3578,0.3579,0,0.3655,0.3656,0.3657,0.3713,0.3714,0.3714,0.3715,0.3795,0.3797,0.3799,0,0,0,0,0,0,0,0,0,0,0,0,0,0.3483,0.3484,0.3578,0.3579,0.358,0.3655,0.3656,0.3657,0.3713,0.3714,0.3714,0.3715,0.3795,0.3797,0.3799,0,0,0,0,0,0,0,0,0,0,0,0,0,0.3538,0.3484,0.3578,0.3617,0.3621,0.3655,0.3656,0.3658,0.3713,0.3714,0.3714,0.3715,0.3794,0.3797,0.3799,0.3801,0,0,0.3807,0.3808,0,0,0,0,0,0,0,0,0.3535,0.3542,0.361,0.3614,0.3619,0.3675,0.3652,0.3706,0.3713,0.3678,0.3715,0.3715,0.3755,0.3761,0.3774,0.3805,0.3808,0.3807,0.3809,0.381,0.3811,0,0,0,0,0,0,0,0.3531,0.3539,0.3609,0.3611,0.3617,0.3632,0.364,0.3663,0.3712,0.3681,0.3686,0.3694,0.3758,0.3771,0.3776,0.3809,0.3807,0.3809,0.3811,0.3812,0.3847,0.3847,0,0,0,0,0,0,0.3521,0.3535,0.3606,0.3611,0.3578,0.3633,0.3643,0.3657,0.3712,0.3721,0.3693,0.3696,0.3766,0.3773,0.3779,0.3785,0.381,0.3812,0.3814,0.3848,0.3847,0.3846,0,0,0,0,0,0,0.3519,0.3527,0.3603,0.3574,0.3585,0.3634,0.3649,0.3658,0.3671,0.3721,0.373,0.3698,0.3767,0.3776,0.3795,0.3789,0.3813,0.3816,0.3849,0.3848,0.3847,0.3797,0,0,0,0,0,0,0.3516,0.3525,0.3526,0.3574,0.3587,0.3617,0.3649,0.3659,0.3675,0.368,0.3727,0.3736,0.3768,0.3791,0.3798,0.3793,0.3818,0.3849,0.3848,0.3847,0.38,0.3795,0.3791,0,0,0,0,0,0.3512,0.3509,0.3525,0.3534,0.3588,0.3616,0.3624,0.3661,0.3675,0.3676,0.3708,0.3734,0.3789,0.3793,0.3801,0.3796,0.385,0.3848,0.3847,0.3802,0.3796,0.3791,0,0,0,0,0,0,0.3459,0.3516,0.3535,0.3547,0.3576,0.3626,0.3628,0.3653,0.3679,0.3683,0.3728,0.3739,0.3754,0.3777,0.3781,0.3802,0.3823,0.3823,0.3786,0.378,0.3776,0.377,0.382,0,0,0,0,0,0.3449,0.3466,0.3515,0.3522,0.3535,0.3579,0.3593,0.3619,0.3652,0.3664,0.3698,0.3729,0.3753,0.3768,0.3793,0.3804,0.3816,0.3805,0.3801,0.3797,0.3796,0.3805,0.3801,0.3842,0.3842,0.3842,0,0,0.3427,0.3461,0.3469,0.3512,0.3538,0.3556,0.3589,0.3607,0.3621,0.3667,0.3688,0.3714,0.3752,0.3767,0.3775,0.3787,0.3788,0.3795,0.3791,0.3793,0.3803,0.3799,0.3795,0.3841,0.3841,0.3841,0,0,0.3398,0.3425,0.3433,0.3459,0.3497,0.3527,0.3529,0.3575,0.3594,0.3615,0.365,0.3669,0.3709,0.3735,0.3754,0.3736,0.3762,0.3743,0.3719,0.3727,0.3724,0.3721,0.3715,0.3713,0.3743,0.3743,0.3743,0,0.3367,0.3395,0.3435,0.345,0.3469,0.3511,0.3521,0.3544,0.3589,0.3601,0.3614,0.3666,0.3695,0.3717,0.3713,0.3727,0.3731,0.3738,0.3721,0.3719,0.3717,0.3712,0.371,0.374,0.3741,0.3741,0.3741,0,0.3355,0.3375,0.3377,0.3419,0.3438,0.345,0.3493,0.3507,0.3532,0.3561,0.3583,0.3619,0.3652,0.366,0.3684,0.3686,0.3692,0.3712,0.3734,0.371,0.3706,0.3704,0.3737,0.3737,0.3738,0.3739,0,0,0.3293,0.3358,0.3358,0.3378,0.3425,0.3441,0.3457,0.3489,0.3501,0.3531,0.3546,0.358,0.3599,0.362,0.3648,0.3655,0.364,0.3675,0.3676,0.3667,0.3645,0.3629,0.3626,0.3657,0.3657,0.3657,0.3642,0,0.3271,0.33,0.3337,0.3353,0.3372,0.3414,0.3428,0.3458,0.3486,0.3507,0.3538,0.3561,0.3585,0.3598,0.3606,0.3639,0.3636,0.3641,0.3672,0.3673,0.366,0.3624,0.3607,0.3591,0.364,0.364,0.364,0,0.3249,0.3277,0.3295,0.3341,0.335,0.3362,0.3395,0.3414,0.3451,0.347,0.3494,0.3525,0.3545,0.3565,0.3593,0.3596,0.3611,0.3629,0.363,0.3633,0.3654,0.3627,0.3586,0.3583,0.3638,0.3638,0.3638,0,0.3202,0.3244,0.3261,0.3277,0.3331,0.3338,0.3361,0.3398,0.3416,0.3446,0.3458,0.349,0.3507,0.3531,0.357,0.3581,0.3595,0.3618,0.3612,0.3611,0.3612,0.3612,0.3573,0.3623,0.3623,0.3623,0.3623,0,0.3173,0.3182,0.324,0.325,0.3263,0.3306,0.3318,0.3345,0.3378,0.3395,0.3434,0.3449,0.35,0.3522,0.3552,0.3571,0.3579,0.3596,0.3604,0.3592,0.359,0.3602,0.3604,0.3622,0.3622,0.3622,0.3622,0,0.3122,0.3161,0.3182,0.3232,0.3245,0.3252,0.3295,0.3307,0.3338,0.3359,0.3367,0.3415,0.3442,0.3484,0.3524,0.3545,0.3559,0.3573,0.3547,0.3551,0.3544,0.3544,0.3512,0.351,0.356,0.3559,0.3559,0,0.31,0.3109,0.316,0.3174,0.3195,0.3217,0.3236,0.3279,0.3297,0.334,0.3347,0.3378,0.3405,0.3448,0.3487,0.3518,0.3532,0.3519,0.3537,0.3526,0.3532,0.3531,0.3532,0.3514,0.3514,0.3513,0.3513,0,0.3058,0.3078,0.3102,0.3133,0.3154,0.3181,0.321,0.322,0.327,0.3288,0.3317,0.3338,0.3379,0.341,0.3447,0.3472,0.3501,0.3507,0.3507,0.3495,0.3479,0.3488,0.3534,0.3507,0.3508,0.3508,0.3508,0.3508,0.3022,0.3031,0.3069,0.3095,0.3122,0.3148,0.3162,0.3195,0.3219,0.3256,0.3281,0.3308,0.3347,0.3399,0.3423,0.3446,0.3458,0.3459,0.3459,0.3458,0.3454,0.3476,0.3453,0.3454,0.3454,0.3454,0.3454,0,0.2982,0.3008,0.3032,0.3071,0.3092,0.3118,0.3152,0.3168,0.3191,0.3224,0.325,0.3284,0.3314,0.3356,0.3389,0.34,0.3414,0.3407,0.3406,0.3412,0.3441,0.3438,0.3395,0.3395,0.3395,0.3395,0.3395,0.3395,0.2963,0.2981,0.3005,0.3037,0.3064,0.3091,0.3108,0.3133,0.316,0.3195,0.3221,0.3248,0.3285,0.3322,0.3351,0.3363,0.3373,0.3362,0.3378,0.3404,0.341,0.3415,0.3411,0.3364,0.3364,0.3346,0.3346,0.3346]},{"header":{"parameterUnit":"m.s-1","parameterCategory":1,"la1":30.2991,"la2":30.254,"lo1":-89.0895,"lo2":-89.0444,"dy":0.0017,"dx":0.0017,"nx":28,"ny":28,"refTime":"2023-09-17T09:00:00:Z","depth":0,"parameterNumber":3,"parameterNumberName":"V-component_of_WINDS"},"data":[0,0,0,0,0,0,0,0,0,0,0,0,0,0,0,0,0,0,0,0,0,0,0,0,0,0,0,0,0,0,0,0,0,0,0,0,0,0,0,0,0,0,0,0,0,0,0,0,0,0,0,0,0,0,0,0,0,0,-2.1712,-2.1713,0,-2.1811,-2.1812,-2.1813,-2.1914,-2.1916,-2.1917,-2.1918,-2.2017,-2.2018,-2.202,0,0,0,0,0,0,0,0,0,0,0,0,0,-2.1609,-2.1611,-2.1712,-2.1713,-2.1714,-2.1811,-2.1812,-2.1813,-2.1914,-2.1916,-2.1918,-2.1919,-2.2017,-2.2018,-2.202,0,0,0,0,0,0,0,0,0,0,0,0,0,-2.1675,-2.1611,-2.1711,-2.1776,-2.1783,-2.181,-2.1812,-2.1814,-2.1914,-2.1916,-2.1918,-2.192,-2.2016,-2.2018,-2.202,-2.1991,0,0,-2.2026,-2.2027,0,0,0,0,0,0,0,0,-2.1672,-2.1679,-2.1765,-2.1772,-2.1779,-2.1852,-2.1812,-2.1873,-2.1913,-2.1864,-2.1918,-2.1921,-2.196,-2.1967,-2.1981,-2.1995,-2.2,-2.2026,-2.2028,-2.2028,-2.2029,0,0,0,0,0,0,0,-2.1667,-2.1675,-2.1751,-2.1766,-2.1775,-2.18,-2.1812,-2.1824,-2.1899,-2.1868,-2.1876,-2.1887,-2.1965,-2.1979,-2.1984,-2.2001,-2.2026,-2.2028,-2.2029,-2.203,-2.1999,-2.1997,0,0,0,0,0,0,-2.1653,-2.1671,-2.1748,-2.1754,-2.173,-2.18,-2.1813,-2.1827,-2.1899,-2.1913,-2.1885,-2.1891,-2.1974,-2.1982,-2.1988,-2.196,-2.2028,-2.203,-2.2031,-2.2001,-2.1999,-2.1997,0,0,0,0,0,0,-2.165,-2.1659,-2.1744,-2.1715,-2.1727,-2.18,-2.1814,-2.1828,-2.1842,-2.1912,-2.1925,-2.1885,-2.1976,-2.1985,-2.199,-2.1965,-2.2031,-2.2033,-2.2004,-2.2001,-2.1998,-2.1903,0,0,0,0,0,0,-2.1647,-2.1657,-2.1646,-2.1714,-2.1728,-2.1744,-2.1813,-2.1828,-2.1846,-2.1855,-2.1916,-2.1928,-2.1979,-2.1987,-2.1992,-2.1969,-2.2035,-2.2006,-2.2002,-2.1999,-2.1909,-2.1897,-2.1887,0,0,0,0,0,-2.1643,-2.1615,-2.1645,-2.1654,-2.1717,-2.1742,-2.1751,-2.181,-2.1843,-2.1833,-2.1879,-2.1926,-2.1967,-2.1986,-2.1993,-2.197,-2.2008,-2.2003,-2.1999,-2.1913,-2.1899,-2.1887,0,0,0,0,0,0,-2.1541,-2.1624,-2.1659,-2.1652,-2.169,-2.1759,-2.1748,-2.1793,-2.1821,-2.1828,-2.19,-2.1913,-2.191,-2.1941,-2.1961,-2.1947,-2.1994,-2.1991,-2.1927,-2.1914,-2.1904,-2.1896,-2.2036,0,0,0,0,0,-2.1518,-2.1532,-2.1604,-2.1591,-2.1608,-2.1675,-2.1688,-2.1731,-2.1772,-2.1788,-2.1833,-2.1871,-2.1893,-2.1905,-2.1929,-2.1914,-2.193,-2.1902,-2.1891,-2.1882,-2.1878,-2.1875,-2.1864,-2.1982,-2.1982,-2.1982,0,0,-2.147,-2.1517,-2.1521,-2.1572,-2.1605,-2.1619,-2.1687,-2.1697,-2.1708,-2.1789,-2.1797,-2.1832,-2.1879,-2.1875,-2.1875,-2.19,-2.1849,-2.1876,-2.1868,-2.187,-2.1869,-2.1858,-2.1848,-2.1979,-2.1979,-2.198,0,0,-2.1389,-2.1426,-2.142,-2.1454,-2.1505,-2.155,-2.1549,-2.1613,-2.1639,-2.1649,-2.1711,-2.1725,-2.176,-2.1791,-2.1812,-2.1747,-2.1792,-2.1752,-2.1696,-2.1692,-2.1682,-2.1675,-2.1653,-2.1644,-2.1748,-2.1748,-2.1748,0,-2.1322,-2.1345,-2.1411,-2.1419,-2.144,-2.1516,-2.1511,-2.154,-2.1595,-2.1608,-2.1636,-2.1684,-2.1721,-2.1726,-2.171,-2.1724,-2.1725,-2.1745,-2.1679,-2.1671,-2.1665,-2.1645,-2.1636,-2.1743,-2.1743,-2.1744,-2.1744,0,-2.1262,-2.1277,-2.1266,-2.132,-2.134,-2.134,-2.1407,-2.1419,-2.1461,-2.1503,-2.1513,-2.1561,-2.1596,-2.1601,-2.164,-2.1612,-2.1627,-2.1665,-2.1714,-2.1648,-2.163,-2.1623,-2.1736,-2.1737,-2.1739,-2.174,0,0,-2.1118,-2.1211,-2.1205,-2.1232,-2.1296,-2.1308,-2.1314,-2.135,-2.136,-2.1396,-2.1403,-2.1432,-2.147,-2.1493,-2.1538,-2.1534,-2.1482,-2.1575,-2.1577,-2.1556,-2.1455,-2.1425,-2.1415,-2.1513,-2.1511,-2.151,-2.1451,0,-2.1049,-2.1063,-2.1124,-2.1121,-2.1137,-2.1211,-2.1216,-2.1255,-2.1295,-2.1315,-2.1359,-2.1379,-2.1427,-2.1442,-2.1441,-2.1488,-2.1462,-2.1493,-2.152,-2.152,-2.1506,-2.1406,-2.1374,-2.1316,-2.1445,-2.1444,-2.1443,0,-2.0969,-2.1003,-2.1002,-2.1068,-2.1077,-2.108,-2.1119,-2.1137,-2.1184,-2.1214,-2.1241,-2.1292,-2.1303,-2.1348,-2.1364,-2.1384,-2.1399,-2.1424,-2.1423,-2.1428,-2.1477,-2.1408,-2.1299,-2.129,-2.1432,-2.1433,-2.1434,0,-2.0866,-2.0911,-2.0917,-2.0937,-2.1013,-2.1014,-2.1046,-2.1096,-2.1114,-2.1149,-2.1162,-2.1197,-2.1216,-2.1241,-2.1301,-2.1328,-2.1311,-2.1361,-2.1336,-2.1334,-2.1328,-2.1328,-2.122,-2.1337,-2.1337,-2.1337,-2.1337,0,-2.0782,-2.0779,-2.0872,-2.0875,-2.0874,-2.0944,-2.0941,-2.098,-2.1024,-2.1037,-2.1102,-2.1113,-2.119,-2.121,-2.1256,-2.1263,-2.1271,-2.1296,-2.1308,-2.129,-2.1287,-2.1301,-2.1306,-2.1335,-2.1335,-2.1336,-2.1336,0,-2.0666,-2.0728,-2.0739,-2.0812,-2.083,-2.0826,-2.0889,-2.0895,-2.0941,-2.0956,-2.0963,-2.1034,-2.1061,-2.1123,-2.1166,-2.1197,-2.1193,-2.1215,-2.1177,-2.1185,-2.1157,-2.1159,-2.1054,-2.1044,-2.1166,-2.1165,-2.1164,0,-2.0608,-2.0608,-2.0681,-2.0695,-2.0725,-2.0746,-2.0767,-2.0837,-2.0855,-2.0911,-2.091,-2.0943,-2.0972,-2.1012,-2.1067,-2.11,-2.1124,-2.1086,-2.113,-2.1112,-2.1125,-2.1124,-2.1125,-2.1075,-2.1074,-2.1072,-2.1071,0,-2.05,-2.0532,-2.0559,-2.0598,-2.0621,-2.0654,-2.0691,-2.0699,-2.0778,-2.0795,-2.0824,-2.0847,-2.0893,-2.0924,-2.0967,-2.1,-2.1048,-2.1057,-2.1053,-2.1035,-2.1013,-2.1026,-2.1151,-2.1059,-2.106,-2.1061,-2.1062,-2.1062,-2.0413,-2.0417,-2.047,-2.0499,-2.0534,-2.0568,-2.0579,-2.0627,-2.0652,-2.0695,-2.0735,-2.076,-2.081,-2.0873,-2.0903,-2.0924,-2.0949,-2.0943,-2.0941,-2.0939,-2.0932,-2.101,-2.0932,-2.0932,-2.0933,-2.0933,-2.0934,0,-2.0309,-2.0348,-2.0374,-2.0425,-2.0448,-2.0494,-2.0538,-2.0554,-2.0576,-2.0618,-2.0647,-2.0681,-2.0713,-2.0772,-2.0809,-2.0815,-2.0838,-2.0822,-2.0822,-2.083,-2.0907,-2.0907,-2.0803,-2.0803,-2.0803,-2.0803,-2.0803,-2.0803,-2.0258,-2.0268,-2.0306,-2.0334,-2.0373,-2.04,-2.0421,-2.0453,-2.0488,-2.0524,-2.0551,-2.059,-2.064,-2.0681,-2.0713,-2.073,-2.074,-2.0717,-2.074,-2.0811,-2.0824,-2.0836,-2.0836,-2.0718,-2.0718,-2.0662,-2.0661,-2.0661]}]]